Regional Weather Roundup
Issued by NWS

Home | Current Version | Previous Version | Graphics & Text | Print | Product List | Glossary On
Versions: 1 2 3 4 5 6 7 8 9 10 11 12 13 14 15 16 17 18 19 20 21 22 23 24 25 26 27 28 29 30 31 32 33 34 35 36 37 38 39 40 41 42 43 44 45 46 47 48 49 50
154
ASUS44 KLIX 010405
RWRLA
LOUISIANA WEATHER ROUNDUP
NATIONAL WEATHER SERVICE NEW ORLEANS LA
1100 PM CDT TUE SEP 30 2014

NOTE: "FAIR" INDICATES FEW OR NO CLOUDS BELOW 12,000 FEET WITH NO
      SIGNIFICANT WEATHER AND/OR OBSTRUCTIONS TO VISIBILITY.
      SKY/WX - SKY CONDITION AND SIGNIFICANT WEATHER.
      TMP - AIR TEMPERATURE.    DP   - DEWPOINT TEMPERATURE.
      RH  - RELATIVE HUMIDITY.  PRES - PRESSURE.
      HX  - HEAT INDEX.         WCI  - WIND CHILL INDEX.

*  THESE STATIONS ARE NOT NWS OR FAA STATIONS AND ARE NOT UNDER
   NWS QUALITY CONTROL.

LAZ040-048-061>063-065-066-069-010500-
SOUTHEAST LOUISIANA

CITY           SKY/WX    TMP DP  RH WIND       PRES   REMARKS
N.O. AUDUBON     N/A     78  75  89 MISG        N/A
N.O. INTL ARPT PTCLDY    77  72  84 SE6       29.88R
N.O. LAKEFRONT CLEAR     77  72  84 SE7       29.89R
N.O. DOWNTOWN* FAIR      77  70  78 SE6       29.89S
SLIDELL        CLEAR     72  70  93 CALM      29.88S
BATON ROUGE    CLEAR     75  71  87 E5        29.87S
BOOTHVILLE     CLEAR     77  74  90 E6        29.89S
BELLE CHASSE   PTCLDY    77  71  82 SE5       29.88S
BOGALUSA*        N/A     73  70  88 CALM      29.91R
GALLIANO*      NOT AVBL
NEW ROADS*     FAIR      76  70  82 CALM      29.87R
GONZALES*      FAIR      76  76  99 E3        29.87S
HAMMOND*       CLEAR     75  70  83 E3        29.90S
HOUMA*         CLEAR    N/A N/A N/A E3        29.87S
PORT FOURCHON* CLOUDY    81  73  78 SE9G17    29.90F

$$

LAZ041-044-053-054-010500-
SOUTHWEST LOUISIANA

CITY           SKY/WX    TMP DP  RH WIND       PRES   REMARKS
LAKE CHARLES   CLEAR     75  73  93 SE3       29.83S FOG
LAFAYETTE      MOCLDY    76  73  91 CALM      29.85S
PATTERSON      MOCLDY    75  73  94 E5          N/A
SALT POINT       N/A     80  76  87 CALM      29.85S
NEW IBERIA     CLEAR     76  73  91 SE3       29.86R
CHENAULT AIRPK CLEAR     74  74  98 CALM      29.84S FOG

$$

LAZ027-028-010500-
CENTRAL LOUISIANA

CITY           SKY/WX    TMP DP  RH WIND       PRES   REMARKS
FORT POLK      CLEAR     75  73  91 S3        29.84S
ALEXANDRIA INT CLEAR     76  71  85 CALM      29.82F
ALEXANDRIA     CLEAR     73  70  90 CALM      29.85S

$$

LAZ001-002-010500-
NORTHWEST LOUISIANA

CITY           SKY/WX    TMP DP  RH WIND       PRES   REMARKS
SHREVEPORT     PTCLDY    77  68  73 S3        29.82S
BARKSDALE AFB  CLOUDY    76  68  76 SE5       29.83S
DTN SHREVEPORT PTCLDY    78  67  68 SE6       29.82S

$$

LAZ014-016-010500-
NORTHEAST LOUISIANA

CITY           SKY/WX    TMP DP  RH WIND       PRES   REMARKS
MONROE         CLEAR     75  67  76 CALM      29.86S
TALLULAH       CLEAR     75  66  73 SE5       29.87S

$$




USA.gov is the U.S. government's official web portal to all federal, state and local government web resources and services.